SHIYAN-30 01 (65851 NORAD) Tracking and Keplerian Element Data

This shows tracking and keplerian element data for the satellite.

Feedback or suggestion? Click here.




ElementValue
Catalog65851
NameSHIYAN-30 01
Epoch Orbit1226
Epoch Day354.08508174
Epoch Year2025
RAAN256.5225
Inclination34.9883
Eccentricity0.0006243
Argument of Perigee274.2175
Mean Anonmoly85.7816
Mean Motion14.92661325
Decay Rate1.913E-05
L11 65851U 25222A 25354.08508174 .00001913 00000+0 18464-3 0 9999
L22 65851 34.9883 256.5225 0006243 274.2175 85.7816 14.92661325 12267



Live tracking and technical data element details for SHIYAN-30 01 (NORAD 65851). SHIYAN-30 01 can be tracked NOW for your location showing map with azimuth and elevation plus other details from your city location.







IsCatalogInMostPopularTable: catalog: 65851, numindb: 6
Update: records affected: 1



GetName: 65851 SHIYAN-30 01

Hit Count: updated at: Mon, 20 Apr 2026 09:32:47 GMT